Location: Gälforsberget
(66.6500°N, 22.4167°E)
Time: 18:03:34
(UTC+00:00)

Spot 4 - Pass Details

Date: 11 April 2026
Orbit: 698 x 714 km, 98.2° (Epoch: 16 May)

Event Time Altitude Azimuth Distance (km) Brightness Sun altitude
Exits shadow 21:37:34 21° 181° (S) 1,542 5.0 -14.1°
Maximum altitude 21:40:38 59° 255° (WSW) 810 4.1 -14.2°
Drops below altitude 10° 21:45:21 10° 336° (NNW) 2,177 7.7 -14.3°
Sets 21:47:39 0° 340° (NNW) 3,100 9.0 -14.4°
